Twin Falls, ID

6:39 AM MST on December 11, 2017 (GMT -0700)
Joslin Field-Magic Valley Regional

Weather History for KTWF - June, 2013

Change the Weather History Date:

Wednesday, June 19, 2013

  Actual Average Record
Temperature  
Mean Temperature 55 °F -  
Max Temperature 67 °F 81 °F 92 °F (1985)
Min Temperature 42 °F 51 °F 39 °F (2005)
Degree Days  
Heating Degree Days 10 2  
Month to date heating degree days 34 73  
Since 1 June heating degree days 34 73  
Since 1 July heating degree days 5716 6157  
Cooling Degree Days 0 3  
Month to date cooling degree days 98 39  
Year to date cooling degree days 123 61  
Since 1 June cooling degree days 98 39  
Growing Degree Days 4 (Base 50)    
Moisture  
Dew Point 38 °F    
Average Humidity 53    
Maximum Humidity 71    
Minimum Humidity 34    
Precipitation  
Precipitation 0.05 in 0.03 in 0.05 in (2013)
Month to date precipitation 0.05 0.69  
Year to date precipitation 2.90 6.02  
Sea Level Pressure  
Sea Level Pressure 29.76 in    
Wind  
Wind Speed 14 mph (WSW)    
Max Wind Speed 31 mph    
Max Gust Speed 39 mph    
Visibility 10 miles    
Events Rain , Thunderstorm    
T = Trace of Precipitation, MM = Missing Value Source: NWS Daily Summary

Daily Weather History Graph

Daily Weather History Graph

Search for Another Location

Airport or City:

Trip Planner

Search our weather history database for the weather conditions in past years. The results will help you decide how hot, cold, wet, or windy it might be!

Date:

Astronomy

Jun. 19, 2013 Rise Set
Actual Time 6:00 AM MDT 9:18 PM MDT
Civil Twilight 5:25 AM MDT 9:53 PM MDT
Nautical Twilight 4:40 AM MDT 10:38 PM MDT
Astronomical Twilight 3:45 AM MDT 11:33 PM MDT
Moon 5:12 PM MDT (6/19) 2:51 AM MDT (6/19)
Length of Visible Light 16h 27m
Length of Day
15h 17m
Waxing Gibbous, 81% of the Moon is Illuminated
Jun 19
Waxing Gibbous
Jun 23
Full
Jun 29
Last Quarter
Jul 8
New
Jul 15
First Quarter

Hourly Weather History & Observations

Time (MDT) Temp. Windchill Dew Point Humidity Pressure Visibility Wind Dir Wind Speed Gust Speed Precip Events Conditions
12:53 AM 64.9 °F - 36.0 °F 34% 29.52 in 10.0 mi SW 19.6 mph 28.8 mph N/A   Clear
1:53 AM 63.0 °F - 36.0 °F 37% 29.54 in 10.0 mi SW 13.8 mph - N/A   Clear
2:53 AM 61.0 °F - 35.1 °F 38% 29.54 in 10.0 mi WSW 10.4 mph - N/A   Clear
3:53 AM 57.9 °F - 35.1 °F 42% 29.54 in 10.0 mi SW 11.5 mph - N/A   Clear
4:53 AM 57.0 °F - 36.0 °F 45% 29.55 in 10.0 mi SSW 9.2 mph - N/A   Clear
5:53 AM 55.0 °F - 36.0 °F 49% 29.56 in 10.0 mi SSW 11.5 mph - N/A   Clear
6:53 AM 55.9 °F - 37.0 °F 49% 29.56 in 10.0 mi South 8.1 mph - N/A   Clear
7:53 AM 62.1 °F - 39.0 °F 43% 29.59 in 10.0 mi SW 18.4 mph 26.5 mph N/A   Partly Cloudy
8:53 AM 57.9 °F - 43.0 °F 58% 29.64 in 10.0 mi West 15.0 mph - N/A   Mostly Cloudy
9:53 AM 59.0 °F - 43.0 °F 55% 29.67 in 10.0 mi WNW 8.1 mph - N/A   Mostly Cloudy
10:53 AM 62.1 °F - 42.1 °F 48% 29.67 in 10.0 mi NW 17.3 mph 24.2 mph N/A   Mostly Cloudy
11:53 AM 63.0 °F - 41.0 °F 45% 29.68 in 10.0 mi West 19.6 mph 24.2 mph N/A   Partly Cloudy
12:53 PM 63.0 °F - 37.0 °F 38% 29.70 in 10.0 mi West 11.5 mph 23.0 mph N/A   Overcast
1:14 PM 55.4 °F - 44.6 °F 67% 29.84 in 8.0 mi NW 16.1 mph 29.9 mph 0.00 in Rain , Thunderstorm Light Thunderstorms and Rain
1:26 PM 55.4 °F - 41.0 °F 58% 29.85 in 10.0 mi NW 10.4 mph - 0.00 in Thunderstorm Mostly Cloudy
1:53 PM 50.0 °F - 39.9 °F 68% 29.80 in 4.0 mi SW 24.2 mph 32.2 mph 0.05 in Rain , Thunderstorm Light Rain
1:58 PM 50.0 °F - 39.2 °F 66% 29.89 in 10.0 mi WSW 19.6 mph 32.2 mph 0.00 in Rain , Thunderstorm Light Rain
2:27 PM 57.2 °F - 42.8 °F 59% 29.89 in 10.0 mi West 13.8 mph - 0.00 in   Partly Cloudy
2:53 PM 62.1 °F - 42.1 °F 48% 29.77 in 10.0 mi West 24.2 mph - 0.00 in   Clear
3:53 PM 55.9 °F - 43.0 °F 62% 29.83 in 10.0 mi WNW 13.8 mph 39.1 mph N/A Thunderstorm Overcast
4:11 PM 60.8 °F - 33.8 °F 36% 29.94 in 10.0 mi WSW 25.3 mph 36.8 mph N/A   Mostly Cloudy
4:53 PM 57.0 °F - 39.0 °F 51% 29.86 in 10.0 mi West 16.1 mph 27.6 mph N/A   Scattered Clouds
5:53 PM 60.1 °F - 33.1 °F 36% 29.87 in 10.0 mi WSW 17.3 mph 29.9 mph N/A   Scattered Clouds
6:53 PM 57.9 °F - 35.1 °F 42% 29.90 in 10.0 mi WSW 20.7 mph 29.9 mph N/A   Scattered Clouds
7:53 PM 55.9 °F - 34.0 °F 44% 29.91 in 10.0 mi SW 13.8 mph - N/A   Mostly Cloudy
8:53 PM 53.1 °F - 35.1 °F 50% 29.94 in 10.0 mi SW 9.2 mph - N/A   Clear
9:53 PM 48.9 °F - 39.0 °F 69% 29.96 in 10.0 mi West 11.5 mph - N/A   Partly Cloudy
10:53 PM 44.1 °F 39.0 °F 36.0 °F 73% 29.98 in 10.0 mi SW 9.2 mph - N/A   Clear
11:53 PM 44.1 °F 39.5 °F 36.0 °F 73% 29.98 in 10.0 mi SSW 8.1 mph - N/A   Clear